Wind_Speed
15 16 16 17 17 17 17 17 18 18 18 18 18 18 18 18 19 20 20 20 20 20 19 19 20 20 20 20 18 17 17 17 18 21 25 21 15 16 20 19 17 18 20 19 19 17 14 12 9 6 7 7 7 7 4 6 7 5 2 2 1 3 4 4 6 7 9 9 12 18 22 20 13 14 17 16 19 24 16 8 13 7 9 23 22 29 31 26
15 16 16 17 17 17 17 18 18 18 18 18 19 19 19 19 19 20 20 21 21 21 20 20 20 20 20 20 18 17 19 19 19 24 23 14 11 16 20 21 19 21 22 21 20 17 14 12 8 6 6 6 6 5 3 5 8 5 3 3 4 4 5 6 10 11 13 15 15 19 23 22 18 21 23 16 14 17 13 11 13 13 17 21 25 31 27 28
16 16 16 17 17 17 18 18 18 19 19 19 19 19 19 19 20 20 20 21 21 21 21 21 21 21 21 20 18 18 20 21 23 23 15 10 15 18 21 24 23 23 23 22 19 16 15 13 9 6 4 4 5 6 4 4 7 6 5 3 6 7 5 8 16 18 21 24 18 17 21 20 23 27 22 16 14 13 11 15 17 18 22 26 29 30 28 30
16 16 17 17 17 18 18 18 19 19 19 19 19 20 20 20 20 21 21 21 22 22 22 21 22 22 21 21 18 17 20 20 17 11 6 8 12 15 21 26 26 24 23 21 19 17 16 14 11 7 4 3 4 5 4 6 6 4 6 5 7 8 5 10 21 22 26 30 22 19 19 17 24 26 22 21 14 5 11 23 28 28 31 32 32 31 32 31
17 17 17 17 17 18 18 18 19 19 20 20 20 20 20 20 20 21 21 21 22 22 22 22 22 22 22 21 18 16 16 11 3 1 3 5 8 12 19 26 28 26 24 21 19 18 16 14 10 5 2 2 2 3 4 8 7 2 7 11 11 12 7 14 24 25 27 29 23 21 18 19 23 21 26 29 13 11 22 28 32 37 38 36 36 35 33 32
17 18 17 18 18 18 18 19 19 19 20 21 21 21 21 21 21 21 21 22 22 23 23 22 22 22 22 22 19 16 10 4 4 2 5 8 10 13 18 26 28 27 25 22 20 18 15 12 8 4 3 1 2 4 5 6 5 3 8 10 16 21 13 16 25 28 29 26 20 20 21 25 21 14 28 30 14 20 30 30 33 36 38 37 37 37 35 35
18 18 19 19 18 18 18 19 19 20 20 21 21 22 21 21 22 22 22 22 22 23 24 23 23 22 21 22 20 15 10 14 13 8 9 11 12 13 18 25 28 29 27 24 22 18 13 9 7 5 3 0 3 4 7 10 5 5 6 6 14 24 18 21 28 30 29 24 22 24 25 25 19 14 22 17 9 21 28 29 33 33 35 36 36 37 37 37
19 19 19 20 20 19 19 19 20 20 21 21 21 22 22 22 22 23 23 22 23 23 24 24 24 23 22 21 18 15 16 17 12 6 8 7 7 10 18 26 29 30 28 26 23 19 12 7 8 5 3 2 3 4 5 10 5 4 7 3 9 18 20 25 29 29 26 23 26 26 21 18 21 20 14 9 13 24 28 30 32 32 35 36 36 37 36 36
19 20 20 20 20 21 20 20 20 20 21 22 22 22 23 23 23 23 23 23 23 23 24 24 25 24 22 19 14 13 15 12 8 6 6 4 3 7 18 26 29 30 28 26 23 18 12 7 8 6 3 2 5 5 4 4 2 5 5 7 10 15 22 27 27 28 26 25 29 22 12 15 23 20 7 10 22 26 29 31 32 33 35 35 35 36 36 36
20 20 20 21 21 21 22 21 21 21 22 22 22 23 23 23 24 24 24 24 24 24 24 24 25 25 21 17 9 6 9 7 7 5 6 6 2 4 16 23 26 28 27 26 22 18 12 8 7 5 2 5 4 4 7 2 4 11 5 13 15 20 22 28 26 26 26 23 29 21 9 16 23 15 5 12 26 30 31 31 32 35 35 35 35 35 36 36
21 21 21 21 21 22 22 22 23 22 23 23 23 23 24 24 24 25 25 25 25 25 25 24 25 25 21 15 8 7 8 8 9 5 6 8 5 4 11 19 23 25 25 25 21 17 13 10 8 4 1 3 3 9 10 4 12 7 15 13 14 20 18 25 23 23 23 14 25 26 11 12 12 7 10 22 29 32 34 31 33 34 33 34 34 34 35 35
22 22 22 22 22 22 22 23 23 23 24 23 24 24 24 25 25 25 26 26 26 26 25 25 24 24 20 16 17 14 10 13 15 11 8 10 9 7 7 12 17 20 22 22 18 15 12 10 8 6 5 2 4 6 8 11 14 4 18 11 9 11 11 18 18 23 20 11 26 29 11 4 2 5 20 31 32 33 34 32 32 32 32 33 33 34 35 35
23 23 23 23 23 23 23 23 23 24 24 24 24 24 25 26 26 26 26 26 26 26 27 25 24 23 17 16 23 19 13 16 18 14 11 12 12 11 10 10 12 14 16 17 15 13 10 8 8 8 8 5 3 4 10 15 8 6 7 7 9 7 5 11 14 21 17 17 31 22 5 4 3 10 26 32 34 33 30 31 31 31 32 33 33 35 36 36
22 23 24 24 24 24 24 23 24 24 24 25 24 24 25 25 26 26 26 27 27 26 25 21 18 16 13 19 26 20 13 15 18 16 12 14 14 12 12 12 12 13 12 12 13 12 8 7 7 8 9 7 6 7 10 10 6 5 1 4 7 5 7 7 8 16 12 18 24 10 2 6 3 14 28 33 35 34 29 29 31 31 32 33 33 35 36 37
21 22 23 24 25 25 24 24 24 24 24 24 24 24 24 24 25 25 26 26 24 20 16 13 12 11 12 21 23 13 9 13 18 17 13 14 14 12 12 12 13 12 11 11 10 10 8 7 8 6 5 5 6 5 4 5 4 5 2 2 3 5 7 6 7 12 14 16 14 4 3 5 5 15 28 33 34 33 30 29 30 31 32 33 34 35 37 37
22 22 22 23 24 24 25 25 25 25 25 24 24 23 23 23 23 24 22 18 16 12 9 8 9 7 8 14 13 5 5 9 13 14 14 14 13 11 10 10 12 12 12 11 9 9 9 7 8 5 4 3 2 1 3 5 3 2 4 5 5 5 6 5 7 10 15 17 10 2 6 4 5 17 28 32 33 32 28 28 30 31 32 33 34 36 37 36
23 23 23 23 23 24 24 24 26 27 25 24 23 22 22 22 21 20 13 10 13 14 11 9 9 9 10 12 9 5 3 3 6 8 11 14 13 10 10 12 12 13 13 12 10 9 9 7 5 3 3 2 2 4 2 3 2 2 2 4 4 8 10 7 6 11 11 14 8 4 8 7 7 18 28 31 33 31 26 28 31 32 32 33 35 35 36 36
24 24 24 24 24 24 23 24 25 27 25 24 23 23 22 19 18 14 7 11 18 14 11 9 5 5 9 10 9 7 8 11 11 8 8 11 14 13 13 13 11 13 13 10 10 10 9 6 3 2 1 1 3 5 3 4 4 3 5 5 3 8 11 10 10 10 11 10 7 7 7 7 9 16 25 30 34 30 27 30 32 33 34 34 35 35 36 37
25 25 25 25 25 24 24 24 24 26 25 23 22 23 18 14 13 8 8 17 18 8 7 7 5 5 12 19 17 14 17 21 18 13 11 10 12 14 14 13 12 14 12 5 6 10 10 4 2 3 2 3 4 6 8 8 8 7 6 6 7 9 10 12 11 11 14 8 5 10 9 9 13 15 20 28 33 30 28 29 30 31 33 34 35 36 37 37
25 25 26 26 25 25 24 24 25 25 25 23 22 19 13 12 9 6 16 27 22 14 14 16 18 20 25 31 28 21 23 22 18 15 13 10 11 14 15 14 12 12 9 6 4 8 11 5 3 6 6 7 8 9 9 7 6 6 2 3 6 9 10 11 9 11 14 8 5 9 10 12 16 16 18 27 29 24 24 24 26 30 32 34 36 36 38 38
25 25 25 25 26 25 23 24 25 23 24 23 21 15 9 10 6 7 21 29 26 22 24 27 26 26 29 31 32 27 22 20 21 18 15 12 12 12 14 13 8 6 6 7 5 5 9 7 7 9 9 9 9 8 6 4 4 4 2 3 4 5 6 5 8 12 12 6 4 5 8 12 15 16 18 23 22 19 24 25 26 30 32 35 36 37 39 38
25 25 25 25 26 25 23 24 23 23 23 19 15 10 7 8 6 8 13 18 29 31 28 29 26 28 31 30 34 29 16 14 20 22 18 13 13 11 11 10 7 4 4 5 4 3 4 6 10 10 8 8 7 5 6 6 6 4 2 3 3 4 1 1 5 13 10 4 4 7 9 9 11 14 15 20 21 22 29 31 31 33 32 32 34 36 38 37
26 25 25 26 25 25 23 22 23 23 19 15 13 7 5 8 8 12 10 10 27 31 24 26 27 30 31 30 32 25 15 13 16 21 20 13 13 16 12 7 6 5 5 5 6 6 4 6 10 8 7 7 6 4 7 5 4 4 3 4 3 3 3 2 4 11 6 2 5 7 4 3 5 8 9 17 23 22 28 33 33 35 35 36 38 38 38 37
25 25 25 26 26 25 23 22 23 18 13 13 12 5 4 9 11 15 12 6 15 20 21 26 26 30 32 28 25 20 19 18 16 20 20 15 14 17 12 7 7 5 5 7 8 7 5 7 6 5 8 9 7 5 7 5 4 4 5 5 3 4 5 3 4 9 3 4 5 8 4 3 4 7 7 12 17 17 22 27 27 31 36 38 38 38 39 39
25 25 25 26 26 25 23 22 18 13 14 14 8 4 6 10 12 14 10 3 7 12 15 18 17 23 25 21 18 17 16 17 19 20 19 19 17 13 10 9 8 5 6 7 7 6 7 10 6 4 6 8 8 6 6 7 4 3 4 8 7 7 6 4 8 10 5 2 4 8 4 5 4 8 9 8 10 13 15 19 22 28 32 32 31 34 37 39
24 24 24 25 26 27 24 18 13 14 17 12 5 6 8 9 11 10 4 2 5 6 4 4 6 7 9 14 21 18 8 10 19 22 19 20 20 15 9 6 5 5 7 6 4 4 5 8 7 5 6 7 7 7 6 8 5 3 6 8 9 8 7 9 12 10 5 4 7 9 6 4 3 8 11 8 9 12 11 13 20 26 29 30 32 34 36 38
24 23 24 24 24 27 25 19 17 18 15 9 7 8 8 8 8 5 2 3 4 4 1 3 4 1 3 10 22 18 4 7 17 23 24 20 21 22 13 5 4 5 5 5 3 4 5 8 7 7 7 6 6 5 6 9 7 4 6 7 8 8 8 11 12 9 5 3 3 5 3 2 3 8 9 9 9 11 11 12 16 24 29 31 34 36 37 39
23 22 23 23 22 24 26 24 20 17 12 10 11 9 8 8 6 1 3 2 4 3 2 3 4 4 4 8 24 19 5 6 8 17 28 23 20 22 12 6 7 6 5 7 6 5 5 9 9 8 7 5 6 6 7 10 6 7 7 7 7 9 10 10 10 8 5 5 4 6 3 3 4 5 5 9 10 12 15 16 16 22 30 32 35 38 39 41
23 22 22 24 21 20 24 26 21 16 12 10 9 9 9 8 4 2 4 1 4 3 2 2 3 4 2 8 19 17 10 7 4 13 24 22 21 20 11 10 10 6 7 7 7 6 3 8 10 8 6 5 6 6 7 10 7 6 4 4 3 4 7 7 7 6 4 5 7 11 9 4 4 3 5 7 8 12 16 17 17 23 31 34 36 40 40 41
24 21 21 24 23 21 23 24 18 13 10 8 8 9 8 4 2 3 1 2 3 4 4 3 4 3 2 5 7 9 10 8 5 10 16 18 23 20 12 15 12 5 5 4 6 7 5 6 7 6 6 7 8 7 9 12 10 4 2 2 1 3 2 0 1 4 5 4 8 14 16 9 4 4 5 8 12 18 17 14 15 20 28 34 38 40 41 41
24 22 21 23 24 23 25 22 15 11 10 10 11 8 4 1 3 3 4 2 2 5 5 3 3 5 3 2 3 5 6 6 4 8 8 10 15 11 6 10 8 3 4 4 3 5 5 7 5 3 7 9 7 6 8 10 9 4 2 3 1 4 4 4 4 3 5 5 7 13 15 10 7 5 7 13 18 20 18 15 16 19 27 36 38 40 41 42
25 23 21 22 24 26 27 21 16 14 12 10 10 6 0 1 0 3 4 3 2 3 2 2 4 6 5 4 2 5 5 5 4 6 7 6 6 7 5 6 6 4 4 5 3 4 5 7 5 4 7 9 7 4 4 5 5 5 4 4 3 3 2 0 2 1 4 6 6 11 13 8 7 7 10 17 19 18 18 21 23 25 31 37 38 40 41 42
26 25 24 22 24 28 26 19 16 16 12 7 6 3 3 2 3 6 5 1 3 2 2 4 8 8 6 5 3 4 4 5 6 6 7 8 7 8 7 5 8 8 3 4 5 4 4 6 7 5 6 8 9 5 4 4 4 6 6 5 6 3 2 3 3 1 3 6 5 9 12 5 4 5 10 16 21 25 28 32 34 35 37 39 41 43 41 41
27 27 27 24 24 27 24 18 17 16 12 8 3 2 3 3 5 5 6 6 5 4 5 6 10 11 8 4 3 3 3 5 5 6 6 6 6 7 7 6 6 8 4 3 4 5 6 6 8 8 4 6 9 7 7 5 4 6 5 6 6 5 5 4 4 4 5 5 2 3 7 6 4 6 10 17 26 32 36 38 35 31 34 38 40 41 40 40
29 27 27 26 24 21 18 16 17 15 14 11 4 2 5 6 4 2 4 6 3 5 6 7 8 8 8 5 4 2 3 5 3 5 5 6 7 7 7 7 7 6 5 4 3 3 6 7 7 7 7 7 7 6 8 6 4 4 4 5 5 7 6 3 4 6 5 2 0 2 4 5 5 6 5 9 20 23 26 30 25 21 25 31 33 35 38 40
30 27 25 24 19 13 12 14 16 17 18 14 5 3 6 4 3 3 3 2 2 2 4 5 4 4 4 4 3 4 3 4 2 3 3 4 6 8 8 7 8 9 6 6 4 2 5 6 6 6 8 9 10 8 8 8 5 2 4 4 5 6 7 3 3 1 3 3 2 2 4 4 3 5 6 2 9 11 13 19 20 21 25 28 31 34 38 41
31 29 25 20 16 14 15 14 14 20 22 14 5 5 5 3 4 5 3 2 1 2 2 3 3 2 2 3 3 4 5 5 2 2 3 3 4 7 8 6 9 12 9 7 4 2 5 4 7 7 8 12 15 13 8 9 9 4 5 7 4 2 3 3 2 1 3 3 4 2 5 4 2 4 5 3 5 10 12 15 17 19 23 27 32 37 40 43
32 31 25 18 18 18 15 12 14 24 22 10 5 5 3 3 4 4 4 4 3 3 3 0 2 2 2 2 3 4 5 5 4 3 3 3 4 8 10 6 7 13 14 12 6 3 4 2 7 6 9 8 9 9 8 9 9 5 4 5 5 2 1 1 3 3 2 3 3 3 3 4 4 5 4 2 8 10 11 12 12 15 21 28 33 38 41 42
30 26 18 17 21 17 8 7 18 26 16 5 6 6 3 4 5 6 8 7 3 2 2 2 3 2 3 3 4 6 4 2 4 5 3 4 4 7 12 10 7 11 15 14 8 2 4 4 6 5 6 5 3 5 7 9 6 1 1 3 3 3 5 4 3 4 4 3 3 3 3 3 6 6 7 9 11 11 11 11 12 17 26 33 35 37 39 39
25 16 10 14 15 6 5 12 20 19 8 3 6 4 2 3 5 8 10 7 2 2 3 3 4 4 4 5 5 5 4 3 4 3 3 4 4 6 10 12 8 9 15 15 10 5 3 4 5 6 4 3 3 5 8 8 5 3 3 4 3 2 2 2 2 3 4 4 3 3 3 5 6 5 8 11 10 11 14 15 15 18 27 33 34 36 38 39
20 8 3 9 13 11 9 8 9 6 2 3 3 3 3 3 3 6 12 12 6 6 7 5 6 6 6 6 5 3 3 3 3 4 4 5 5 4 8 13 11 9 11 10 9 7 4 4 6 6 4 4 6 7 7 9 9 8 7 7 6 5 4 3 3 1 2 3 5 5 4 7 6 4 7 8 7 8 13 15 14 18 27 31 35 38 40 42
15 4 3 4 5 3 3 2 3 2 2 3 3 3 4 4 4 6 11 12 7 6 8 7 7 7 7 7 6 4 4 4 4 4 4 7 8 7 10 18 19 13 10 8 10 9 5 4 5 8 6 6 9 9 7 9 9 8 8 8 7 5 6 6 5 3 1 1 2 4 3 7 6 4 6 7 6 10 16 17 14 20 29 34 37 39 41 44
13 11 8 5 6 7 5 2 3 2 2 5 5 5 7 5 3 4 5 6 5 4 5 6 6 8 7 7 7 6 4 5 6 6 6 7 9 14 19 24 24 16 9 7 9 8 5 4 5 7 7 6 7 8 6 4 5 4 6 6 6 6 6 7 5 5 4 3 2 2 3 6 6 4 4 6 6 9 17 22 20 21 28 34 38 40 42 45
18 18 10 2 3 5 7 2 3 4 3 5 5 6 8 7 5 7 6 5 6 4 4 4 6 8 6 4 6 7 4 4 5 5 6 7 8 16 24 29 26 14 10 11 10 9 6 3 5 6 6 6 6 6 6 3 3 4 4 5 7 8 8 5 3 4 3 5 6 5 5 6 6 4 0 2 5 7 14 23 27 26 28 33 37 40 42 44
16 13 8 6 5 4 5 1 1 2 2 3 3 4 5 6 8 12 11 9 10 8 5 6 8 9 6 2 6 9 6 4 4 4 5 6 7 11 15 22 23 14 12 18 19 17 9 4 6 7 7 8 7 6 6 3 2 3 3 6 9 10 11 6 3 4 4 4 6 6 5 6 7 5 1 1 5 7 10 17 24 27 30 34 37 38 41 43
7 4 6 9 7 1 1 4 7 4 2 3 3 3 3 2 5 10 11 10 13 13 9 8 10 9 6 5 6 7 6 5 4 4 5 6 5 6 11 11 14 13 10 11 14 13 4 3 8 10 11 10 9 9 7 3 4 5 5 8 10 11 12 8 5 5 6 4 4 6 7 5 5 6 5 5 6 9 9 12 18 24 29 34 37 39 42 44
3 1 3 5 7 5 3 5 8 5 3 3 3 3 4 3 3 6 6 6 10 11 7 7 9 8 7 7 5 4 5 4 3 4 6 6 5 7 14 14 5 10 7 8 13 9 2 3 9 12 15 15 13 12 9 4 6 8 9 10 11 10 11 9 7 7 7 7 5 9 6 10 9 9 9 9 9 9 8 11 20 28 31 34 37 39 40 40
3 4 4 3 4 2 2 5 9 7 5 5 3 3 4 4 3 3 4 7 11 10 6 4 7 8 10 11 7 4 4 2 4 5 5 5 4 6 10 9 3 2 2 6 14 9 3 4 8 10 15 17 15 16 14 8 6 8 8 11 13 12 13 13 12 9 10 9 8 8 9 12 12 11 12 13 13 13 15 20 27 29 30 32 33 35 36 37
3 5 6 5 4 5 8 12 12 9 6 5 4 4 3 3 4 4 4 5 7 7 3 1 5 8 6 10 9 4 4 4 2 4 3 3 5 4 4 5 4 6 8 2 5 5 4 6 7 9 12 14 15 17 16 12 10 9 9 11 12 13 16 16 12 10 12 11 8 10 14 13 12 13 15 16 16 15 15 19 22 23 26 29 31 33 35 38
5 4 7 8 7 9 12 11 8 6 6 4 3 3 3 2 3 7 7 5 6 6 4 2 6 9 8 5 7 5 5 6 5 4 4 4 4 1 1 3 4 7 7 3 2 1 4 6 6 9 8 10 12 15 15 13 13 13 13 13 12 12 13 12 7 6 7 5 2 9 12 11 8 6 6 8 11 9 8 14 20 25 30 31 30 32 35 37
6 3 4 7 6 7 8 6 4 3 4 3 2 2 4 3 4 9 10 8 6 4 4 5 7 6 7 6 3 6 3 4 7 9 11 10 9 6 4 4 4 7 6 3 3 1 3 4 2 6 6 8 10 13 14 11 10 12 13 14 12 9 8 6 4 6 8 5 5 7 8 9 7 2 5 5 7 8 9 15 21 25 29 31 31 32 33 34
7 1 2 4 4 5 4 3 3 3 2 2 3 5 5 7 10 10 7 6 5 6 7 8 7 3 3 5 3 3 8 9 10 14 17 19 19 16 13 12 10 6 4 3 3 0 4 2 2 5 6 7 8 10 11 7 5 8 10 9 9 7 7 5 3 3 6 8 8 6 7 9 6 7 7 6 6 7 7 11 15 19 22 25 28 30 31 31
Wind_Direction
333 333 334 334 334 334 333 333 332 332 331 331 331 333 334 334 332 330 330 332 332 330 332 333 331 330 330 328 320 316 313 301 292 281 272 268 260 252 244 234 219 211 214 218 221 224 229 236 241 240 233 228 250 274 286 260 231 206 113 97 211 194 196 183 169 168 153 155 160 161 151 139 146 137 129 136 129 137 147 136 157 175 166 164 160 156 158 160
331 331 331 332 332 331 331 330 330 330 329 329 329 330 331 332 331 329 328 330 330 330 331 333 332 330 330 329 321 317 316 310 297 281 275 271 244 226 222 222 214 207 211 219 222 225 231 237 239 221 216 223 235 235 253 246 204 180 115 134 220 205 202 186 158 157 155 155 159 159 154 145 142 141 140 137 135 141 130 123 136 131 145 158 157 157 160 160
329 329 329 329 329 329 329 328 328 327 327 327 326 327 329 329 329 328 327 328 329 329 330 332 333 331 330 330 322 318 322 318 301 286 274 248 234 219 209 209 207 205 209 217 223 228 233 239 240 221 224 245 238 232 232 213 199 199 165 161 228 209 215 185 156 159 160 154 153 154 152 144 142 147 147 142 143 149 143 143 141 138 149 155 159 161 161 161
326 326 326 326 327 327 326 326 325 325 325 324 324 325 326 327 327 326 325 326 327 328 329 332 333 332 330 329 324 320 329 323 302 286 245 230 241 226 212 205 200 202 206 213 220 223 228 236 239 239 266 269 252 251 233 196 206 207 177 197 218 189 202 186 162 161 158 152 152 148 144 142 147 149 146 141 136 157 175 166 159 156 157 157 162 165 163 166
323 322 323 323 323 324 323 323 323 323 322 322 322 322 323 324 324 323 323 323 325 326 327 330 331 333 330 329 325 320 335 335 304 143 206 260 269 239 218 205 198 198 203 209 213 216 223 229 235 243 251 268 284 253 230 205 203 221 218 226 209 175 180 186 165 157 156 151 149 145 143 149 152 152 152 150 150 189 186 178 168 163 162 162 164 165 167 172
320 319 320 320 320 320 320 320 320 320 319 320 320 320 321 322 321 321 320 320 323 324 325 328 329 331 331 329 324 319 327 289 270 316 267 283 282 248 218 205 198 196 201 206 209 214 220 222 224 203 158 235 273 234 266 261 227 236 250 248 208 185 175 174 162 155 155 150 148 151 151 152 150 157 163 161 171 185 181 176 169 166 166 163 162 165 171 176
318 317 317 317 317 317 317 317 317 317 317 317 317 317 319 319 320 319 318 319 320 322 323 324 326 328 330 329 323 316 292 269 287 301 267 273 273 247 213 202 198 196 200 204 206 209 209 206 195 166 122 218 271 247 292 308 284 220 257 284 191 177 164 162 158 154 154 149 150 151 150 154 152 159 170 169 169 169 170 170 166 165 166 163 165 169 174 178
316 316 315 315 315 315 315 314 314 314 314 314 314 315 316 317 318 316 316 316 317 319 319 321 323 324 328 328 325 316 291 279 292 285 243 257 267 237 205 196 197 198 201 204 207 207 197 184 184 173 136 186 275 259 299 323 315 221 224 226 157 152 147 152 150 147 144 139 143 143 145 158 156 151 162 164 150 158 162 164 162 162 166 167 170 173 177 180
315 314 314 313 312 312 312 312 312 311 311 311 312 312 313 315 316 315 314 313 315 316 316 319 318 319 323 323 326 319 291 279 297 278 222 224 258 219 199 194 196 200 203 207 210 210 195 184 199 198 185 265 278 257 344 14 315 290 191 150 132 128 135 142 139 139 135 135 138 133 131 146 147 138 125 152 152 157 159 159 162 163 167 171 174 177 180 182
316 314 313 312 311 310 310 310 310 309 308 308 308 309 310 312 313 313 312 313 314 313 314 315 314 316 315 313 322 313 280 279 307 286 210 204 194 196 199 195 198 201 205 210 213 211 196 181 184 179 240 299 277 297 349 93 304 316 154 138 134 131 135 138 133 132 130 137 139 130 124 137 144 138 115 158 156 156 156 159 164 165 168 172 176 180 183 185
317 316 314 312 311 310 309 309 308 307 306 305 305 306 308 309 311 311 310 312 312 312 312 311 311 309 307 304 283 257 268 284 305 298 217 201 179 179 199 199 204 206 208 212 216 214 202 185 177 171 261 313 322 324 324 310 333 337 138 125 127 130 132 135 130 131 126 132 137 127 116 129 142 152 152 159 158 159 158 160 166 167 171 174 178 182 185 189
318 317 315 314 313 311 309 308 307 306 305 303 302 304 306 308 308 308 309 311 312 311 309 308 307 303 303 292 268 266 281 281 286 281 229 198 188 182 195 209 215 217 219 220 220 221 216 211 214 233 246 300 336 326 321 327 343 101 134 112 123 120 127 140 135 138 129 135 137 122 104 128 174 165 155 158 160 162 160 161 168 170 174 176 180 184 187 192
318 318 317 316 314 313 311 309 307 306 303 301 301 303 305 306 307 307 308 310 311 310 307 305 302 298 296 281 277 287 292 277 269 257 221 199 195 192 202 216 225 230 235 235 235 233 227 232 240 247 258 286 299 291 313 325 7 121 137 120 129 102 145 163 145 141 133 149 145 124 114 224 268 156 156 160 161 161 161 165 170 173 176 179 183 186 190 195
319 319 318 317 316 315 313 312 310 306 303 302 301 303 305 304 306 306 307 308 310 308 306 303 299 297 285 278 290 298 287 265 247 234 214 204 198 197 212 218 227 236 238 238 239 239 234 244 257 259 267 272 273 298 317 330 58 109 281 123 133 129 177 210 169 144 135 163 158 118 129 202 205 161 160 163 165 164 165 170 174 176 180 182 186 189 194 198
320 319 318 317 317 316 316 314 312 308 306 304 302 305 305 304 306 306 307 309 310 310 309 309 306 299 284 285 296 297 270 247 230 222 210 210 209 207 217 221 228 232 232 231 227 229 226 239 254 253 271 273 275 312 350 352 51 123 167 151 174 158 169 231 220 162 145 176 190 101 105 187 176 169 166 166 169 168 168 175 178 181 184 187 190 193 198 202
322 321 319 318 317 316 317 316 314 312 309 308 307 308 307 307 308 309 313 319 322 325 329 324 310 302 289 290 298 301 265 237 220 219 215 218 220 214 216 226 232 226 222 223 215 214 213 233 256 248 255 261 229 81 33 358 7 136 162 177 191 160 164 202 230 212 164 168 207 148 133 174 170 175 171 169 173 172 172 178 182 185 188 190 193 197 201 204
324 323 321 321 319 318 318 317 316 313 312 313 310 309 313 314 312 314 321 335 337 333 327 313 304 299 274 269 286 311 332 270 229 227 227 229 231 232 232 234 234 220 211 210 210 212 213 225 242 245 243 223 132 110 60 329 291 294 199 176 186 162 166 172 199 233 195 165 183 154 149 169 165 172 173 175 177 175 176 180 184 188 189 192 195 198 202 204
323 322 322 322 321 321 321 320 317 314 314 316 315 316 320 317 312 314 309 320 329 328 316 301 296 308 272 267 284 285 306 313 296 274 261 249 241 244 241 236 229 209 199 203 213 208 209 216 187 191 281 122 109 117 147 229 202 204 195 174 180 169 173 181 179 198 198 181 164 141 151 166 158 168 176 179 179 179 182 183 185 188 190 193 195 198 202 205
321 321 321 320 321 322 322 322 319 316 316 316 319 322 322 321 316 314 307 315 322 314 299 282 257 274 280 284 283 276 291 303 301 280 273 274 250 238 230 231 223 195 174 170 213 197 186 192 147 166 220 207 183 159 184 216 192 182 200 180 169 175 185 191 184 176 176 175 160 157 161 163 163 172 180 182 183 185 186 185 185 188 190 192 194 197 200 204
320 319 319 318 319 320 322 323 320 320 320 318 324 331 339 346 340 330 319 312 305 296 289 279 270 266 273 280 278 283 294 296 295 271 259 283 264 231 216 219 212 187 166 147 189 185 170 177 208 191 198 200 199 195 196 209 193 174 214 248 192 182 193 195 183 174 168 161 187 178 161 164 171 177 183 182 185 189 187 186 188 189 191 192 194 197 198 203
320 319 318 317 317 319 321 321 319 321 321 322 333 350 16 16 7 329 321 310 300 298 291 288 283 270 270 274 272 280 292 292 290 267 246 269 267 229 208 206 190 189 190 161 157 173 168 182 223 209 193 196 206 206 197 205 210 195 203 270 251 205 201 196 169 174 172 152 186 181 160 174 179 179 183 181 184 193 189 187 191 193 194 195 196 198 200 203
320 319 319 317 316 318 320 320 318 319 321 324 339 3 32 22 7 321 314 298 296 297 291 289 282 270 271 270 268 271 268 270 278 261 241 254 254 222 196 186 175 202 200 157 147 184 191 210 227 215 180 190 221 198 183 216 222 218 187 146 252 264 217 97 162 173 172 144 175 178 172 186 186 182 185 185 189 196 193 191 194 195 195 197 199 199 201 202
320 320 318 317 316 317 319 318 316 317 321 328 336 356 12 353 347 323 304 271 292 296 284 280 271 265 267 263 262 256 229 230 254 251 239 236 231 210 190 169 175 194 182 170 178 183 207 239 229 206 150 176 226 189 168 209 228 212 184 157 212 239 187 230 183 168 165 109 159 160 158 190 190 193 200 197 198 199 197 198 198 197 197 200 202 202 201 201
320 320 317 317 315 316 319 318 316 316 321 329 329 336 355 337 336 330 316 266 288 292 283 283 270 258 258 256 253 232 213 221 234 246 239 223 218 209 196 176 167 193 203 185 184 189 225 252 227 164 149 181 212 198 164 179 236 239 201 189 199 197 211 245 151 146 88 24 119 115 64 324 206 202 218 207 207 209 204 202 201 202 204 204 204 203 202 202
321 320 318 317 315 315 318 317 316 314 317 323 313 306 339 331 326 329 327 292 282 286 292 290 265 254 255 249 236 212 208 222 231 242 234 220 217 202 191 190 176 201 211 179 174 198 236 246 227 160 168 186 203 211 181 174 208 278 224 202 205 206 203 159 136 138 100 357 185 137 129 280 243 207 217 208 208 217 209 204 206 207 208 208 206 205 205 205
322 321 319 318 316 315 316 316 313 312 320 322 297 309 321 311 318 325 341 8 295 276 293 278 246 262 258 227 208 192 191 230 233 236 230 227 222 200 186 190 178 198 193 168 174 200 224 224 211 207 199 183 201 222 198 169 162 264 237 200 203 217 199 162 152 152 150 204 206 171 172 243 254 221 219 210 213 219 215 210 211 209 208 209 208 208 207 205
322 321 320 317 317 317 315 313 310 313 321 316 297 306 302 294 312 322 3 6 303 261 213 207 220 289 308 217 190 172 164 237 231 234 231 230 217 201 200 197 172 195 172 151 211 215 185 194 201 211 206 185 201 224 195 158 143 234 230 177 189 222 217 183 166 174 185 138 161 183 154 109 220 227 205 195 215 224 226 225 219 213 210 209 209 210 208 206
320 321 319 314 314 314 309 306 308 315 317 302 296 299 297 296 289 298 59 345 286 279 234 224 235 259 299 199 180 173 173 195 204 226 228 231 212 195 199 197 174 191 185 168 218 249 182 191 202 197 203 208 206 213 184 156 162 240 223 173 190 219 219 196 176 190 182 116 158 209 170 119 247 253 174 180 210 223 228 227 221 215 211 208 209 210 210 208
318 321 318 310 308 305 300 300 304 312 309 297 297 295 296 292 262 102 81 266 293 310 263 270 286 262 234 167 182 187 184 186 187 203 212 220 210 196 199 201 180 187 213 188 207 249 211 196 196 184 199 215 214 214 170 159 197 237 204 164 176 223 222 201 181 181 148 147 192 201 188 189 263 258 162 171 209 224 228 226 221 216 212 209 209 209 210 209
316 319 316 307 304 301 295 294 302 311 304 295 302 300 295 272 172 108 148 248 304 291 278 312 329 298 146 143 201 205 189 212 224 182 192 201 199 198 199 201 191 176 225 217 201 225 248 236 211 185 196 199 212 218 176 180 208 208 115 140 65 352 323 184 130 120 133 196 217 200 192 190 232 246 189 182 205 213 217 223 220 215 213 211 210 209 208 208
314 315 312 304 302 299 292 293 303 305 291 295 305 306 292 248 103 133 208 253 307 280 305 326 341 8 39 147 227 218 200 230 216 166 179 188 191 195 182 191 192 167 220 239 241 249 251 250 246 210 207 194 197 224 194 193 202 176 127 158 209 325 9 28 10 77 168 226 239 208 195 191 215 240 211 207 214 212 210 214 213 209 210 210 209 209 208 207
314 311 306 300 296 290 287 294 301 290 285 294 303 315 80 176 75 193 220 353 329 263 1 328 324 4 348 315 273 218 208 218 196 167 177 170 178 200 187 182 180 176 223 221 236 275 238 238 260 269 239 205 187 229 233 206 167 152 148 136 173 276 2 94 259 193 205 240 238 196 183 195 231 233 213 213 219 219 214 215 212 206 206 206 206 207 207 207
313 310 303 296 290 285 285 294 289 278 280 281 288 335 85 152 225 214 216 275 246 229 43 329 324 346 346 340 316 243 230 223 199 180 188 174 169 200 213 210 177 167 197 201 199 226 233 258 255 246 256 214 191 201 228 221 160 157 164 157 176 180 143 214 237 256 243 256 250 185 174 199 268 255 219 210 217 218 216 217 215 209 205 203 204 205 205 206
312 312 305 297 292 289 291 289 271 261 260 247 247 51 120 203 233 213 215 231 258 320 350 341 334 335 336 329 268 227 223 243 213 175 184 173 169 201 219 232 197 165 149 166 191 190 195 239 234 219 225 196 195 201 194 188 177 181 167 155 173 168 165 207 213 201 221 244 271 140 168 192 204 227 217 207 215 216 217 220 218 213 208 203 203 203 203 205
314 313 306 302 301 296 291 274 250 239 227 207 159 119 189 221 234 209 227 230 265 312 309 323 324 313 314 296 260 234 212 243 219 163 184 180 180 197 198 212 212 179 152 174 214 190 193 235 242 229 225 195 198 208 180 174 227 218 137 131 188 187 177 199 195 186 185 200 204 140 198 215 204 247 266 220 217 215 218 226 221 211 206 201 201 201 201 205
315 313 310 311 309 297 290 268 240 220 202 179 143 199 211 221 210 192 217 192 173 275 305 329 305 277 302 295 314 352 307 262 208 158 213 209 198 200 195 204 201 187 174 181 215 184 180 246 265 233 237 224 212 210 181 177 203 194 142 183 214 176 156 168 230 211 108 158 240 194 217 284 282 278 321 293 208 198 204 220 217 205 196 192 197 200 201 205
320 321 320 320 313 301 297 282 237 203 187 169 169 218 209 231 222 209 259 314 302 307 36 19 305 283 301 296 312 349 351 325 281 204 234 235 223 206 203 213 196 190 189 179 213 216 161 254 277 213 227 241 222 221 227 194 178 180 210 204 184 127 118 131 186 19 75 184 256 201 197 243 224 234 312 9 165 182 190 202 208 200 188 190 198 201 203 206
326 326 325 323 320 311 300 280 217 187 174 165 210 227 205 227 226 217 282 326 343 354 32 30 270 277 268 295 307 319 354 346 308 298 251 230 243 209 196 207 201 195 194 185 204 245 164 247 291 219 209 239 216 209 248 236 205 209 226 181 149 168 227 148 169 174 159 203 259 275 231 218 195 215 254 216 181 188 192 190 192 191 189 195 200 202 204 206
329 328 328 330 328 320 296 226 185 172 162 165 215 222 217 228 256 269 280 300 313 306 303 232 219 256 272 277 289 304 327 291 275 303 265 220 252 223 194 195 205 197 192 187 192 224 161 195 277 257 213 221 184 177 222 244 239 217 128 161 153 168 183 182 167 165 181 197 215 274 289 242 226 212 199 209 202 182 176 180 189 195 197 199 199 201 203 204
334 331 333 345 351 8 122 152 164 164 161 195 200 210 243 240 264 274 272 274 246 233 260 225 222 255 273 270 264 274 281 248 237 260 252 226 260 259 212 196 199 194 191 190 189 189 171 187 236 276 271 222 207 206 202 206 211 194 198 208 187 129 143 173 169 142 153 167 176 214 264 261 251 206 186 212 208 176 176 184 192 198 199 199 200 201 202 204
345 338 334 18 49 79 99 135 165 175 188 218 209 216 249 248 255 279 280 275 255 235 246 245 247 256 267 272 258 235 262 274 241 236 262 244 233 256 228 207 200 183 179 190 196 193 186 185 213 252 267 231 237 238 201 187 189 187 198 205 185 159 128 149 232 247 127 157 171 174 228 263 259 202 193 214 196 175 188 190 189 194 195 198 202 202 203 206
352 330 265 351 32 20 326 298 247 226 193 228 245 230 245 258 250 260 272 273 261 234 236 238 245 249 254 259 252 234 248 272 265 246 246 238 226 228 227 216 209 190 165 183 204 194 165 150 198 236 244 233 242 246 224 204 200 199 210 205 177 154 137 150 206 233 192 203 139 127 209 262 262 216 206 226 206 183 191 190 185 188 192 197 202 203 205 208
337 312 293 295 295 263 244 281 282 247 232 261 275 273 266 260 252 260 261 260 253 235 231 228 232 237 235 240 249 249 244 248 250 246 255 261 248 241 230 216 209 199 169 181 202 189 168 144 181 230 260 271 266 269 267 218 181 211 246 212 174 176 170 161 176 180 184 202 141 129 235 264 276 256 222 233 224 184 184 186 184 186 192 197 200 203 206 209
323 310 297 324 335 223 201 230 262 239 263 275 277 282 270 257 252 257 249 230 223 224 238 236 228 232 233 240 261 267 270 260 252 259 277 284 274 262 242 218 208 201 181 187 182 172 191 184 161 200 247 267 272 278 285 283 163 190 236 214 193 187 166 142 123 136 191 213 163 159 227 251 274 290 331 175 190 180 182 185 185 187 191 197 200 203 207 210
327 312 293 325 351 207 200 49 27 261 302 310 296 281 271 265 249 247 249 245 238 235 243 252 244 240 240 254 278 281 283 274 279 299 293 284 288 290 263 225 212 206 204 198 176 164 182 193 164 186 214 222 227 229 235 242 193 198 210 204 202 185 168 161 129 143 209 227 155 158 212 251 281 296 339 183 187 187 190 187 189 191 193 196 200 203 206 210
330 315 305 326 341 321 207 48 46 15 336 352 324 266 247 258 261 267 270 255 243 236 230 240 249 249 243 237 260 280 280 264 270 293 302 297 285 306 314 274 222 210 231 218 171 155 161 184 180 193 208 211 210 220 221 166 157 204 210 203 208 194 177 158 127 165 188 166 175 210 197 193 251 252 222 228 209 195 193 187 191 198 198 198 200 203 206 210
299 304 350 339 333 343 6 36 38 20 309 306 310 262 264 273 279 295 293 271 261 255 236 225 233 230 216 210 218 244 251 256 280 289 293 294 277 295 322 323 247 200 214 185 165 153 94 202 195 197 209 214 211 217 218 163 170 207 204 199 207 200 177 162 169 188 160 137 211 250 198 173 207 220 210 215 212 209 208 193 194 199 199 198 200 203 206 210
267 313 360 353 310 321 2 337 339 332 295 288 275 247 266 278 294 307 296 301 296 277 249 224 239 237 211 195 187 202 224 252 322 306 284 280 299 320 327 329 313 300 354 156 169 162 139 214 211 199 212 220 219 222 223 210 210 220 209 205 204 191 180 186 194 180 152 163 213 224 189 185 199 203 204 206 200 200 204 201 199 200 197 197 199 202 206 209
283 300 322 332 309 283 287 297 304 305 295 290 268 250 266 284 302 310 305 318 310 288 266 223 274 291 256 203 190 195 194 177 257 285 270 286 308 326 327 305 294 340 5 36 188 170 167 212 203 191 216 227 222 228 232 225 230 239 231 221 208 191 188 195 197 178 172 190 201 178 181 197 202 198 204 207 201 197 198 196 196 196 195 194 196 200 204 208
337 310 319 331 316 286 283 288 296 302 300 289 251 261 305 293 303 327 319 291 281 296 332 308 277 304 308 247 186 170 177 161 168 230 262 302 311 267 248 274 283 326 345 326 284 146 186 223 196 171 210 237 223 226 232 227 229 236 237 233 219 199 193 193 183 167 182 205 156 153 179 212 225 201 187 189 185 177 172 178 187 194 194 192 194 198 203 207
339 285 302 324 303 278 285 295 303 300 287 277 260 319 335 319 324 329 309 270 254 278 309 291 280 303 317 290 176 136 145 160 177 223 245 258 263 252 248 249 270 313 321 298 306 32 168 244 225 150 185 234 223 221 228 227 230 240 245 240 224 199 187 185 164 165 176 164 110 122 174 220 231 143 91 114 156 170 184 185 187 192 193 191 193 198 203 207
348 285 270 318 292 279 307 317 303 284 267 303 350 342 320 304 313 319 304 295 312 323 320 304 286 294 308 281 277 331 316 292 261 256 256 254 254 256 262 261 255 258 270 285 301 197 140 182 229 156 182 234 229 207 205 200 212 244 250 229 202 177 157 145 134 169 168 147 138 159 207 221 201 146 132 138 160 181 203 199 187 185 188 192 196 199 202 207
Height
1529 1528 1527 1526 1525 1524 1522 1521 1520 1518 1517 1516 1515 1513 1512 1510 1508 1507 1505 1504 1503 1501 1500 1499 1498 1496 1494 1492 1490 1489 1488 1487 1485 1483 1480 1478 1480 1482 1482 1483 1485 1486 1486 1487 1488 1489 1490 1491 1493 1494 1495 1495 1495 1495 1495 1495 1495 1496 1501 1510 1515 1514 1511 1505 1506 1507 1506 1509 1509 1510 1509 1509 1514 1517 1518 1521 1522 1522 1525 1526 1527 1528 1528 1530 1531 1533 1535 1537
1528 1527 1526 1525 1524 1522 1521 1520 1519 1517 1516 1515 1513 1512 1511 1509 1508 1506 1504 1502 1501 1500 1499 1498 1497 1495 1493 1491 1489 1487 1486 1484 1482 1479 1476 1476 1477 1477 1478 1480 1482 1483 1484 1485 1486 1487 1489 1490 1491 1493 1493 1493 1494 1494 1494 1494 1494 1496 1502 1511 1512 1508 1502 1496 1498 1499 1500 1504 1505 1507 1508 1508 1510 1514 1516 1520 1524 1524 1525 1527 1528 1529 1530 1532 1533 1534 1536 1537
1527 1526 1525 1524 1522 1521 1520 1519 1517 1516 1515 1514 1512 1511 1510 1508 1507 1505 1503 1501 1500 1499 1498 1497 1495 1494 1492 1490 1488 1486 1484 1482 1479 1474 1473 1474 1474 1474 1475 1477 1479 1481 1482 1483 1485 1487 1487 1488 1489 1491 1492 1492 1493 1493 1493 1494 1494 1493 1499 1509 1506 1498 1495 1493 1494 1496 1497 1500 1503 1508 1508 1508 1510 1512 1515 1518 1522 1524 1524 1525 1527 1529 1530 1531 1533 1534 1536 1537
1526 1525 1524 1522 1521 1520 1519 1518 1516 1515 1514 1512 1511 1510 1508 1507 1506 1504 1502 1501 1499 1497 1496 1495 1494 1492 1491 1489 1487 1485 1483 1480 1474 1471 1472 1472 1472 1472 1473 1474 1476 1479 1480 1482 1484 1485 1485 1486 1488 1489 1491 1491 1492 1492 1492 1493 1494 1492 1496 1502 1496 1491 1495 1494 1493 1495 1497 1499 1503 1506 1508 1510 1511 1512 1514 1517 1524 1527 1523 1521 1520 1524 1528 1529 1532 1534 1535 1537
1525 1524 1522 1521 1520 1519 1517 1516 1515 1514 1512 1511 1510 1508 1507 1506 1504 1503 1501 1500 1498 1496 1494 1494 1492 1491 1490 1488 1487 1484 1484 1483 1474 1470 1472 1471 1471 1471 1471 1473 1474 1476 1479 1481 1482 1483 1484 1485 1486 1488 1490 1490 1491 1492 1491 1489 1490 1492 1491 1489 1486 1488 1493 1492 1492 1495 1497 1500 1503 1505 1507 1510 1511 1512 1513 1513 1519 1521 1518 1519 1518 1519 1523 1526 1529 1532 1535 1536
1524 1522 1521 1520 1518 1517 1516 1515 1514 1512 1511 1509 1508 1507 1505 1504 1503 1501 1500 1498 1497 1495 1493 1492 1491 1490 1488 1487 1485 1483 1485 1482 1473 1471 1472 1470 1470 1469 1470 1471 1473 1475 1477 1479 1480 1481 1483 1484 1486 1488 1489 1490 1491 1491 1490 1487 1488 1492 1488 1481 1481 1484 1487 1489 1491 1494 1496 1499 1502 1503 1505 1507 1510 1513 1512 1511 1512 1512 1514 1518 1520 1521 1522 1525 1528 1531 1533 1535
1523 1521 1520 1518 1517 1516 1514 1513 1512 1511 1509 1508 1507 1505 1504 1503 1501 1500 1498 1497 1495 1494 1492 1490 1489 1488 1487 1486 1484 1482 1482 1476 1470 1471 1470 1468 1469 1467 1468 1470 1472 1473 1474 1476 1478 1480 1481 1483 1485 1486 1489 1491 1491 1489 1488 1485 1485 1490 1487 1479 1479 1480 1483 1487 1490 1493 1495 1498 1500 1501 1505 1506 1508 1512 1514 1513 1512 1513 1516 1520 1521 1524 1526 1527 1529 1530 1532 1534
1522 1520 1518 1517 1516 1514 1513 1512 1510 1509 1508 1506 1505 1504 1502 1501 1500 1498 1496 1495 1494 1492 1491 1489 1488 1486 1486 1485 1482 1481 1478 1472 1469 1470 1468 1467 1467 1466 1467 1468 1470 1472 1473 1475 1476 1479 1481 1482 1484 1485 1488 1490 1489 1487 1486 1485 1484 1486 1485 1481 1480 1480 1483 1487 1489 1493 1496 1498 1500 1502 1505 1506 1507 1510 1514 1515 1515 1516 1518 1521 1523 1525 1527 1529 1530 1531 1532 1534
1520 1519 1517 1516 1514 1513 1511 1510 1509 1507 1506 1505 1503 1502 1501 1499 1498 1496 1495 1494 1492 1491 1489 1488 1486 1485 1484 1483 1482 1480 1473 1469 1469 1468 1467 1467 1466 1466 1466 1467 1469 1470 1472 1474 1476 1479 1481 1482 1483 1484 1487 1487 1486 1486 1484 1488 1489 1483 1481 1481 1481 1482 1484 1487 1490 1492 1495 1498 1499 1503 1506 1508 1508 1510 1516 1518 1517 1518 1520 1522 1524 1525 1528 1529 1530 1532 1533 1534
1519 1517 1516 1514 1513 1511 1510 1508 1507 1505 1504 1503 1501 1500 1499 1497 1496 1495 1493 1492 1490 1489 1487 1486 1484 1483 1482 1481 1482 1480 1471 1468 1469 1467 1467 1467 1466 1466 1467 1467 1469 1470 1471 1473 1475 1478 1480 1482 1483 1483 1485 1484 1485 1485 1483 1488 1488 1482 1480 1481 1481 1483 1486 1488 1490 1493 1495 1498 1498 1502 1508 1509 1509 1511 1518 1520 1518 1519 1521 1523 1524 1525 1527 1529 1531 1532 1533 1534
1517 1516 1515 1513 1511 1510 1508 1507 1505 1504 1502 1501 1499 1498 1497 1495 1494 1492 1491 1490 1488 1487 1486 1484 1483 1481 1480 1479 1481 1477 1469 1468 1468 1467 1467 1466 1466 1467 1467 1468 1469 1470 1471 1473 1475 1478 1480 1482 1482 1483 1485 1484 1485 1484 1482 1483 1483 1480 1481 1484 1486 1485 1488 1489 1490 1493 1495 1500 1500 1500 1507 1510 1510 1512 1514 1516 1518 1519 1520 1523 1525 1526 1527 1529 1531 1532 1533 1535
1515 1514 1513 1511 1510 1508 1507 1505 1503 1502 1500 1499 1498 1496 1495 1493 1492 1490 1489 1488 1486 1485 1483 1482 1481 1479 1478 1477 1475 1471 1468 1468 1466 1466 1466 1466 1466 1467 1468 1469 1469 1471 1472 1473 1475 1477 1480 1481 1482 1483 1484 1484 1485 1485 1482 1482 1482 1481 1482 1490 1494 1491 1493 1492 1490 1493 1493 1501 1501 1499 1513 1518 1513 1513 1512 1514 1517 1519 1520 1522 1524 1526 1527 1529 1530 1532 1533 1534
1514 1512 1511 1509 1508 1507 1505 1503 1501 1500 1498 1497 1495 1494 1493 1491 1490 1488 1487 1486 1484 1482 1481 1479 1478 1476 1476 1472 1467 1466 1467 1466 1465 1465 1465 1465 1466 1466 1467 1468 1469 1471 1472 1474 1476 1478 1480 1481 1481 1483 1483 1483 1484 1484 1483 1481 1482 1486 1486 1491 1500 1503 1503 1495 1491 1493 1493 1499 1496 1498 1521 1526 1516 1513 1512 1514 1516 1519 1521 1522 1524 1526 1527 1528 1530 1531 1532 1533
1513 1511 1509 1508 1506 1505 1503 1502 1500 1498 1496 1494 1493 1493 1491 1489 1488 1486 1485 1483 1482 1480 1478 1477 1475 1475 1474 1467 1463 1464 1465 1464 1463 1464 1465 1465 1465 1466 1466 1467 1468 1470 1472 1474 1476 1478 1479 1480 1481 1481 1482 1482 1482 1482 1483 1482 1483 1491 1495 1495 1501 1511 1511 1498 1491 1494 1496 1500 1493 1497 1520 1525 1516 1514 1512 1514 1516 1517 1520 1521 1523 1525 1526 1527 1528 1530 1531 1532
1512 1510 1508 1507 1505 1503 1502 1500 1498 1496 1494 1492 1491 1490 1489 1487 1486 1484 1483 1481 1479 1478 1475 1474 1474 1473 1471 1464 1461 1462 1462 1462 1462 1463 1465 1465 1465 1466 1466 1466 1468 1469 1471 1473 1475 1477 1478 1479 1480 1480 1480 1481 1481 1484 1487 1489 1488 1493 1505 1509 1505 1508 1510 1501 1494 1492 1495 1499 1494 1499 1519 1523 1516 1513 1512 1513 1515 1516 1518 1520 1522 1523 1524 1526 1527 1529 1530 1531
1511 1509 1507 1506 1504 1502 1500 1498 1496 1494 1492 1491 1489 1488 1487 1485 1484 1482 1481 1478 1477 1476 1474 1473 1472 1473 1471 1463 1460 1461 1460 1461 1462 1464 1465 1465 1465 1466 1466 1467 1467 1468 1470 1472 1474 1476 1477 1477 1478 1478 1479 1481 1482 1487 1493 1497 1498 1497 1505 1513 1508 1507 1511 1507 1498 1491 1489 1494 1496 1500 1514 1520 1514 1511 1512 1513 1515 1516 1517 1519 1520 1522 1523 1524 1526 1527 1528 1530
1509 1507 1506 1504 1503 1501 1499 1497 1494 1492 1491 1490 1487 1486 1485 1483 1481 1480 1479 1477 1476 1475 1474 1473 1472 1472 1467 1460 1459 1460 1460 1461 1463 1464 1464 1464 1465 1465 1466 1466 1466 1468 1469 1472 1474 1475 1476 1476 1477 1478 1479 1480 1482 1488 1500 1507 1507 1503 1504 1507 1505 1504 1508 1509 1503 1494 1489 1492 1497 1499 1506 1512 1508 1507 1510 1511 1513 1515 1516 1517 1518 1519 1521 1522 1524 1525 1526 1528
1507 1505 1504 1503 1501 1500 1498 1496 1493 1490 1489 1488 1486 1484 1483 1481 1479 1478 1477 1475 1475 1474 1473 1472 1472 1473 1465 1457 1459 1460 1459 1460 1461 1461 1462 1463 1464 1464 1465 1465 1465 1467 1468 1471 1473 1473 1476 1475 1476 1480 1481 1482 1484 1490 1502 1506 1502 1502 1504 1504 1504 1503 1504 1505 1500 1492 1491 1495 1498 1501 1506 1508 1506 1506 1509 1510 1511 1513 1513 1514 1515 1517 1518 1520 1522 1523 1524 1525
1505 1503 1502 1501 1500 1499 1497 1495 1492 1490 1488 1487 1486 1483 1481 1479 1477 1477 1475 1474 1474 1474 1473 1471 1471 1473 1466 1456 1456 1458 1458 1459 1458 1458 1460 1461 1462 1462 1463 1464 1465 1465 1467 1471 1472 1471 1473 1475 1478 1484 1486 1485 1485 1488 1493 1492 1490 1494 1497 1497 1499 1502 1500 1495 1490 1484 1487 1497 1501 1501 1504 1506 1506 1507 1507 1508 1510 1511 1512 1513 1514 1515 1516 1517 1519 1520 1522 1523
1504 1502 1500 1499 1498 1497 1496 1494 1492 1489 1487 1485 1484 1482 1480 1479 1477 1476 1473 1471 1471 1471 1470 1469 1468 1467 1463 1457 1455 1456 1456 1457 1457 1456 1457 1459 1460 1460 1460 1463 1464 1465 1466 1469 1472 1469 1471 1479 1482 1483 1483 1482 1481 1482 1482 1481 1484 1488 1492 1494 1494 1497 1496 1490 1487 1483 1483 1496 1503 1499 1500 1503 1504 1504 1504 1506 1509 1510 1511 1512 1512 1513 1513 1514 1515 1516 1518 1519
1503 1501 1499 1497 1496 1495 1494 1493 1490 1489 1487 1485 1484 1483 1483 1483 1483 1481 1475 1466 1464 1468 1466 1463 1464 1462 1458 1456 1453 1456 1457 1455 1454 1453 1455 1457 1458 1459 1459 1460 1464 1467 1466 1465 1468 1468 1471 1480 1480 1476 1476 1476 1476 1477 1479 1481 1484 1486 1489 1494 1495 1495 1494 1487 1485 1484 1483 1494 1503 1501 1502 1504 1502 1502 1502 1504 1508 1508 1508 1509 1509 1509 1510 1511 1512 1513 1515 1516
1502 1500 1498 1496 1494 1493 1493 1491 1490 1488 1487 1486 1485 1485 1485 1486 1486 1485 1481 1468 1457 1460 1462 1457 1458 1456 1453 1454 1452 1455 1459 1456 1453 1451 1452 1455 1456 1457 1457 1458 1464 1466 1465 1464 1469 1473 1476 1478 1472 1469 1471 1473 1475 1476 1480 1483 1483 1486 1489 1493 1497 1495 1492 1489 1485 1484 1485 1494 1503 1503 1505 1506 1502 1501 1502 1502 1502 1503 1504 1504 1505 1506 1508 1510 1510 1511 1513 1515
1501 1498 1497 1494 1492 1492 1491 1490 1489 1487 1486 1485 1485 1485 1485 1485 1484 1483 1483 1475 1455 1450 1455 1453 1452 1450 1447 1449 1448 1451 1455 1454 1453 1450 1450 1453 1453 1454 1455 1457 1462 1464 1465 1466 1470 1477 1479 1474 1465 1465 1469 1473 1477 1477 1480 1484 1484 1486 1488 1493 1496 1493 1494 1496 1491 1489 1489 1493 1500 1503 1507 1509 1506 1506 1504 1502 1501 1501 1503 1503 1503 1506 1506 1506 1507 1509 1511 1513
1498 1497 1495 1492 1491 1490 1489 1489 1487 1486 1486 1485 1484 1484 1483 1483 1483 1481 1479 1475 1459 1444 1445 1446 1444 1442 1440 1441 1444 1447 1448 1449 1449 1447 1448 1451 1450 1453 1454 1455 1460 1464 1464 1465 1468 1473 1474 1467 1461 1464 1469 1472 1477 1478 1480 1485 1488 1486 1485 1489 1491 1489 1491 1493 1491 1491 1493 1496 1498 1504 1516 1517 1510 1512 1509 1504 1504 1503 1502 1504 1505 1506 1505 1505 1506 1507 1509 1510
1497 1496 1493 1491 1490 1487 1488 1487 1485 1485 1484 1484 1484 1482 1483 1481 1481 1480 1476 1476 1465 1446 1440 1440 1438 1435 1433 1437 1441 1442 1444 1444 1444 1444 1445 1447 1449 1451 1452 1452 1458 1463 1464 1464 1467 1471 1469 1462 1460 1465 1470 1471 1475 1478 1479 1482 1487 1488 1483 1481 1482 1483 1486 1490 1491 1493 1503 1510 1502 1503 1526 1527 1512 1512 1511 1505 1505 1503 1502 1504 1504 1504 1505 1506 1507 1507 1508 1509
1495 1494 1491 1490 1488 1485 1486 1485 1484 1485 1482 1483 1483 1481 1483 1480 1479 1480 1476 1480 1473 1449 1440 1440 1436 1433 1430 1434 1436 1438 1446 1443 1438 1442 1443 1445 1446 1448 1452 1452 1454 1459 1461 1462 1466 1467 1463 1459 1459 1464 1468 1471 1475 1476 1474 1476 1486 1490 1479 1473 1475 1478 1483 1489 1490 1494 1506 1510 1497 1495 1516 1525 1516 1511 1508 1505 1506 1504 1503 1502 1500 1501 1502 1503 1505 1505 1506 1508
1494 1492 1490 1489 1487 1484 1483 1482 1483 1483 1481 1482 1481 1481 1482 1478 1480 1478 1478 1492 1480 1446 1439 1439 1435 1434 1430 1431 1432 1437 1448 1442 1436 1439 1439 1442 1444 1444 1451 1453 1452 1455 1454 1459 1468 1463 1457 1459 1461 1462 1466 1471 1475 1475 1470 1470 1483 1486 1471 1467 1474 1476 1482 1486 1487 1492 1495 1495 1497 1496 1503 1516 1518 1508 1502 1504 1507 1506 1504 1501 1498 1498 1499 1500 1501 1502 1504 1505
1492 1491 1489 1487 1487 1485 1481 1481 1482 1481 1481 1481 1479 1481 1479 1477 1480 1475 1485 1505 1478 1439 1437 1437 1431 1432 1430 1431 1432 1433 1437 1435 1436 1438 1435 1439 1442 1441 1448 1449 1450 1453 1449 1457 1468 1460 1452 1458 1460 1461 1467 1470 1470 1469 1465 1466 1477 1474 1463 1465 1471 1473 1478 1481 1484 1489 1488 1494 1510 1507 1501 1514 1518 1504 1499 1504 1507 1507 1503 1497 1494 1492 1493 1495 1497 1499 1500 1501
1490 1489 1488 1485 1485 1484 1480 1479 1480 1480 1480 1479 1478 1480 1477 1478 1478 1474 1494 1503 1466 1437 1438 1434 1431 1432 1430 1432 1433 1430 1431 1432 1435 1435 1433 1438 1440 1440 1445 1445 1446 1451 1448 1452 1461 1457 1450 1452 1453 1456 1464 1465 1462 1460 1459 1465 1469 1463 1460 1465 1469 1471 1475 1477 1483 1488 1490 1500 1514 1507 1499 1511 1515 1505 1502 1507 1508 1504 1496 1489 1486 1486 1489 1491 1492 1494 1496 1498
1488 1487 1486 1483 1481 1482 1479 1478 1479 1479 1478 1477 1478 1477 1476 1478 1475 1485 1507 1495 1459 1443 1438 1433 1434 1433 1431 1435 1435 1431 1431 1431 1431 1431 1433 1435 1437 1439 1441 1442 1444 1448 1450 1450 1454 1453 1448 1446 1448 1450 1454 1455 1454 1455 1456 1459 1460 1458 1463 1469 1473 1476 1476 1479 1483 1486 1498 1509 1507 1499 1493 1501 1511 1507 1501 1499 1493 1486 1483 1483 1482 1483 1485 1486 1487 1490 1492 1495
1485 1485 1484 1481 1479 1478 1476 1476 1478 1478 1477 1477 1477 1476 1476 1477 1478 1496 1504 1477 1455 1447 1438 1437 1438 1433 1435 1439 1438 1435 1432 1431 1429 1431 1435 1435 1438 1440 1441 1445 1447 1450 1455 1455 1454 1453 1449 1449 1448 1445 1445 1446 1450 1454 1453 1453 1455 1460 1467 1472 1480 1485 1483 1489 1490 1491 1507 1513 1498 1490 1489 1497 1507 1502 1491 1484 1473 1469 1473 1475 1475 1476 1477 1479 1482 1485 1488 1491
1483 1482 1481 1479 1477 1474 1473 1475 1476 1476 1476 1476 1477 1475 1476 1482 1487 1491 1481 1463 1457 1450 1441 1443 1440 1436 1439 1438 1438 1436 1433 1433 1430 1430 1435 1436 1441 1442 1442 1446 1448 1457 1465 1461 1458 1457 1452 1450 1447 1444 1442 1442 1450 1458 1457 1455 1456 1463 1470 1476 1488 1497 1500 1505 1505 1504 1509 1503 1488 1485 1490 1499 1500 1486 1477 1475 1468 1464 1465 1463 1463 1465 1467 1472 1477 1481 1484 1487
1480 1478 1477 1476 1474 1471 1471 1473 1474 1474 1475 1475 1477 1475 1478 1488 1488 1476 1467 1463 1456 1444 1441 1444 1439 1437 1439 1439 1440 1436 1434 1435 1430 1431 1433 1433 1440 1442 1440 1440 1440 1451 1461 1460 1460 1461 1459 1453 1445 1447 1446 1439 1445 1458 1462 1461 1461 1465 1470 1477 1488 1500 1510 1516 1514 1514 1510 1494 1483 1483 1490 1500 1496 1478 1469 1468 1461 1456 1454 1453 1454 1456 1460 1466 1471 1475 1480 1484
1477 1475 1472 1471 1470 1468 1468 1470 1470 1471 1473 1474 1476 1477 1483 1490 1479 1464 1464 1461 1449 1442 1443 1443 1440 1439 1439 1440 1440 1435 1436 1436 1429 1431 1434 1434 1442 1444 1442 1441 1438 1442 1450 1457 1460 1460 1466 1463 1447 1446 1446 1438 1441 1448 1452 1455 1457 1460 1460 1466 1478 1485 1496 1505 1505 1505 1501 1491 1487 1490 1494 1497 1489 1470 1457 1453 1449 1448 1448 1449 1451 1455 1460 1464 1468 1473 1477 1481
1473 1472 1469 1466 1466 1466 1464 1465 1465 1467 1471 1472 1475 1479 1483 1482 1470 1462 1462 1455 1450 1449 1446 1443 1444 1445 1442 1439 1435 1431 1435 1436 1430 1432 1435 1436 1441 1442 1441 1440 1438 1440 1446 1456 1459 1454 1462 1460 1441 1437 1437 1434 1439 1439 1438 1448 1457 1456 1454 1462 1470 1468 1471 1484 1489 1486 1485 1487 1491 1493 1488 1479 1468 1456 1447 1446 1446 1447 1450 1451 1454 1459 1461 1465 1469 1472 1475 1477
1469 1468 1466 1463 1463 1462 1461 1461 1461 1464 1467 1469 1474 1478 1474 1468 1462 1459 1454 1449 1450 1450 1449 1448 1446 1447 1447 1440 1436 1433 1432 1432 1432 1434 1436 1436 1435 1435 1435 1434 1432 1435 1439 1449 1454 1452 1459 1455 1438 1434 1434 1430 1434 1434 1432 1444 1454 1455 1457 1461 1460 1453 1457 1473 1483 1481 1481 1488 1490 1486 1478 1469 1464 1457 1449 1449 1449 1449 1452 1452 1453 1456 1458 1463 1466 1468 1471 1473
1466 1463 1462 1460 1459 1458 1457 1457 1458 1461 1463 1466 1471 1471 1464 1458 1455 1453 1448 1447 1449 1447 1451 1456 1450 1448 1450 1445 1440 1438 1435 1434 1434 1435 1437 1437 1434 1431 1431 1429 1426 1428 1431 1437 1444 1444 1450 1453 1438 1434 1438 1429 1426 1431 1430 1431 1439 1450 1456 1452 1448 1452 1456 1463 1477 1486 1492 1493 1485 1480 1476 1471 1473 1467 1454 1452 1453 1451 1450 1448 1450 1454 1457 1460 1461 1462 1466 1467
1464 1461 1459 1458 1456 1455 1453 1453 1454 1457 1461 1465 1467 1463 1459 1455 1451 1449 1448 1447 1448 1448 1452 1458 1453 1447 1448 1449 1444 1439 1439 1441 1440 1438 1438 1437 1432 1425 1425 1427 1423 1423 1423 1428 1437 1437 1441 1452 1443 1431 1435 1430 1422 1432 1438 1430 1428 1438 1442 1438 1444 1461 1466 1465 1474 1484 1493 1496 1487 1479 1476 1472 1470 1464 1452 1451 1452 1450 1449 1448 1450 1453 1453 1454 1455 1458 1461 1464
1464 1460 1458 1456 1454 1452 1450 1451 1452 1455 1459 1464 1466 1461 1456 1452 1448 1447 1448 1448 1449 1450 1452 1454 1451 1447 1446 1447 1446 1440 1440 1443 1442 1441 1440 1438 1432 1420 1417 1421 1420 1420 1420 1422 1432 1434 1436 1450 1449 1432 1429 1429 1427 1435 1444 1439 1432 1432 1436 1437 1441 1452 1457 1459 1465 1469 1477 1490 1490 1481 1476 1469 1459 1451 1445 1443 1443 1445 1448 1449 1448 1447 1446 1447 1450 1453 1458 1462
1465 1461 1459 1456 1453 1451 1450 1452 1454 1456 1458 1459 1460 1457 1452 1450 1448 1446 1447 1448 1449 1449 1450 1449 1448 1448 1445 1443 1444 1441 1439 1440 1440 1440 1439 1435 1431 1422 1414 1414 1416 1417 1417 1419 1425 1430 1433 1445 1449 1438 1430 1433 1434 1433 1435 1438 1439 1439 1444 1447 1445 1446 1449 1452 1458 1460 1463 1475 1483 1481 1477 1464 1447 1440 1438 1435 1436 1439 1441 1441 1441 1440 1441 1444 1448 1451 1455 1458
1466 1463 1460 1458 1456 1454 1455 1457 1456 1456 1456 1455 1455 1453 1451 1449 1448 1446 1446 1447 1447 1446 1446 1446 1446 1446 1444 1443 1442 1440 1438 1437 1436 1437 1436 1431 1430 1425 1414 1409 1410 1412 1416 1423 1424 1426 1432 1439 1444 1442 1437 1438 1434 1424 1422 1426 1430 1434 1439 1442 1441 1443 1448 1456 1464 1461 1456 1461 1469 1472 1473 1459 1438 1432 1432 1429 1432 1436 1435 1435 1436 1438 1440 1444 1446 1448 1452 1454
1468 1465 1461 1459 1459 1458 1458 1458 1456 1455 1454 1453 1451 1450 1449 1447 1446 1445 1445 1445 1445 1444 1443 1443 1442 1442 1442 1441 1439 1439 1439 1437 1434 1434 1432 1426 1424 1419 1409 1404 1403 1404 1412 1421 1421 1418 1422 1431 1440 1441 1436 1434 1427 1418 1418 1420 1420 1425 1427 1428 1431 1435 1441 1453 1462 1459 1454 1459 1461 1464 1468 1453 1433 1429 1428 1426 1428 1430 1431 1433 1434 1436 1439 1441 1443 1446 1449 1451
1469 1465 1460 1459 1459 1458 1459 1459 1456 1454 1453 1450 1448 1447 1447 1446 1445 1444 1444 1444 1444 1442 1441 1439 1438 1437 1436 1435 1435 1436 1436 1433 1430 1428 1427 1423 1416 1407 1401 1399 1400 1401 1406 1414 1416 1414 1418 1427 1437 1439 1432 1426 1421 1416 1415 1416 1420 1427 1426 1422 1425 1429 1430 1437 1444 1447 1450 1457 1458 1465 1471 1454 1432 1428 1427 1425 1426 1428 1430 1432 1433 1436 1437 1438 1441 1443 1446 1448
1467 1463 1458 1458 1457 1456 1458 1459 1456 1454 1451 1449 1448 1447 1446 1444 1444 1443 1443 1443 1441 1438 1438 1436 1434 1434 1431 1431 1432 1431 1431 1432 1428 1423 1422 1420 1410 1399 1394 1393 1395 1398 1400 1405 1407 1411 1420 1426 1432 1441 1445 1440 1433 1429 1424 1421 1422 1426 1425 1422 1420 1422 1425 1430 1436 1442 1448 1452 1452 1460 1466 1451 1432 1427 1426 1424 1427 1427 1427 1429 1431 1433 1434 1436 1439 1440 1443 1446
1468 1462 1456 1456 1456 1455 1456 1456 1454 1454 1452 1451 1450 1447 1445 1443 1441 1440 1439 1438 1436 1435 1435 1433 1430 1430 1428 1428 1431 1429 1427 1430 1428 1422 1420 1416 1405 1395 1391 1390 1391 1392 1392 1393 1394 1400 1414 1421 1423 1437 1451 1453 1448 1440 1431 1426 1423 1422 1421 1420 1419 1419 1423 1429 1436 1443 1449 1452 1450 1450 1452 1444 1432 1427 1426 1425 1427 1428 1427 1429 1430 1431 1432 1434 1435 1438 1440 1443
1471 1466 1459 1456 1454 1454 1455 1455 1455 1456 1454 1454 1452 1447 1445 1443 1439 1437 1436 1435 1432 1430 1430 1429 1427 1428 1427 1428 1431 1431 1427 1426 1426 1423 1420 1417 1408 1398 1392 1391 1390 1389 1390 1392 1393 1397 1408 1414 1415 1422 1431 1435 1433 1427 1420 1419 1421 1422 1420 1418 1418 1418 1418 1423 1434 1440 1442 1449 1450 1442 1438 1439 1435 1429 1427 1427 1427 1426 1426 1427 1429 1430 1431 1431 1433 1435 1437 1439
1473 1470 1465 1462 1458 1454 1455 1454 1455 1457 1456 1457 1454 1447 1444 1443 1439 1436 1434 1432 1429 1426 1425 1424 1423 1425 1426 1426 1429 1430 1427 1423 1422 1421 1420 1417 1411 1402 1393 1390 1390 1389 1388 1390 1393 1399 1409 1413 1412 1414 1415 1415 1415 1414 1413 1415 1417 1418 1417 1416 1416 1417 1418 1422 1429 1431 1434 1445 1449 1439 1434 1437 1433 1428 1426 1426 1425 1425 1423 1423 1423 1424 1426 1428 1431 1433 1436 1438
1473 1470 1467 1468 1465 1460 1458 1456 1456 1457 1456 1455 1453 1447 1444 1443 1441 1439 1435 1430 1427 1424 1423 1422 1420 1420 1420 1420 1424 1426 1425 1422 1422 1421 1419 1416 1413 1407 1399 1392 1392 1390 1388 1388 1389 1395 1406 1411 1410 1411 1411 1408 1407 1407 1408 1412 1415 1414 1414 1413 1412 1415 1419 1419 1420 1422 1426 1433 1434 1430 1432 1432 1426 1422 1422 1418 1417 1417 1416 1416 1417 1420 1423 1427 1430 1433 1435 1437
1473 1470 1468 1468 1467 1463 1461 1459 1457 1457 1455 1453 1451 1446 1443 1442 1441 1439 1436 1433 1429 1423 1421 1422 1420 1417 1415 1414 1417 1422 1421 1421 1424 1423 1419 1417 1415 1412 1408 1403 1396 1391 1390 1392 1389 1389 1400 1406 1405 1409 1411 1407 1405 1404 1403 1408 1412 1412 1412 1411 1409 1411 1413 1412 1413 1416 1417 1419 1419 1421 1427 1426 1418 1414 1413 1409 1409 1411 1412 1414 1417 1419 1423 1426 1429 1431 1432 1434
1474 1473 1470 1469 1467 1463 1460 1459 1457 1456 1454 1451 1449 1445 1442 1442 1441 1439 1436 1436 1436 1428 1422 1422 1419 1415 1414 1412 1413 1417 1415 1413 1420 1421 1419 1420 1417 1413 1412 1409 1401 1395 1394 1395 1392 1389 1397 1402 1400 1404 1412 1410 1405 1403 1402 1405 1410 1411 1409 1407 1407 1409 1410 1409 1411 1416 1417 1418 1418 1421 1427 1424 1413 1407 1408 1409 1410 1413 1414 1416 1417 1418 1421 1423 1426 1429 1430 1432
1474 1474 1472 1472 1468 1462 1459 1458 1457 1457 1454 1450 1448 1446 1444 1442 1442 1442 1437 1432 1432 1429 1424 1422 1419 1414 1414 1414 1413 1414 1412 1410 1414 1414 1414 1418 1416 1411 1409 1406 1402 1402 1400 1397 1394 1392 1396 1402 1400 1403 1413 1412 1403 1403 1404 1404 1408 1411 1409 1405 1406 1409 1411 1409 1408 1411 1413 1417 1421 1426 1429 1422 1410 1407 1410 1412 1413 1414 1415 1414 1415 1417 1419 1422 1424 1427 1429 1432
1473 1473 1472 1473 1469 1462 1459 1458 1457 1456 1453 1449 1448 1448 1447 1444 1442 1443 1440 1430 1426 1426 1423 1420 1418 1415 1415 1415 1413 1411 1411 1410 1409 1408 1408 1411 1409 1405 1404 1401 1400 1403 1402 1399 1397 1394 1396 1401 1400 1404 1413 1410 1401 1401 1404 1406 1416 1419 1408 1400 1401 1403 1404 1404 1404 1405 1405 1408 1415 1421 1418 1410 1405 1406 1410 1413 1414 1415 1415 1415 1416 1418 1419 1422 1424 1426 1429 1432